Weather observations for the past three days for
Great Bend, Great Bend Municipal Airport
Imperial (Metric)
Date Time (cdt) Wind (mph) Vis. (mi.) Weather Sky Cond. Temperature (ºF) Relative Humidity Wind Chill (°F) Heat Index (°F) Pressure Precipitation (in)
Air Dwpt 6 hour altimeter (in) sea level (mb) 1 hr 3 hr 6 hr
Max. Min.
17 16:56 E 10 G 18 10.00 Partly Cloudy SCT075 88 57.9 36% 87 30.13 1018.2
17 15:56 E 12 10.00 A Few Clouds FEW070 88 57.9 36% 87 30.14 1018.7
17 14:56 NE 10 G 17 10.00 Fair CLR 88 57.9 36% 87 30.15 1019.0
17 13:56 NE 13 G 21 10.00 Fair CLR 87.1 57 36% 86 30.16 1019.3
17 12:56 NE 13 G 21 9.00 Fair CLR 84.9 57 84.9 71.1 39% 84 30.16 1019.4
17 11:56 NE 15 10.00 Fair CLR 82.9 57 41% 82 30.16 1019.2
17 10:56 E 12 10.00 Fair CLR 81 57.9 45% 81 30.15 1019.1
17 09:56 NE 15 10.00 Fair CLR 79 57 47% 80 30.14 1018.6
17 08:56 NE 16 10.00 Fair CLR 75 61 62% 77 30.13 1018.1
17 06:56 N 12 10.00 Overcast OVC010 72 66.9 77 72 84% 30.1 1017.4
17 05:56 NE 12 10.00 Overcast OVC012 72 66.9 84% 30.09 1016.7
17 04:56 N 12 10.00 Overcast OVC010 73.9 69.1 85% 30.05 1015.6
17 03:56 N 12 10.00 Fair CLR 73 70 90% 30.02 1014.4
17 02:56 S 7 10.00 Mostly Cloudy BKN013 73.9 70 88% 30.03 1014.8
17 01:56 E 7 10.00 Fair CLR 75 69.1 82% 75 29.99 1013.4
17 00:56 NE 13 10.00 Fair CLR 77 69.1 91.9 77 77% 79 30 1013.7
16 23:56 NE 10 10.00 Fair CLR 79 70 74% 82 30 1013.6
16 22:56 NE 10 10.00 Fair CLR 81 69.1 67% 84 30 1013.8
16 21:56 NE 13 10.00 Fair CLR 82.9 66.9 59% 86 29.98 1012.9
16 20:56 NE 9 10.00 Fair CLR 86 64.9 49% 88 29.94 1011.8
16 19:56 NE 15 10.00 Fair CLR 89.1 66 47% 92 29.93 1011.3
16 18:56 NE 16 G 22 10.00 Fair CLR 91.9 66 95 90 43% 95 29.93 1011.3
16 17:56 NE 20 G 24 10.00 Fair CLR 93 66 41% 96 29.91 1010.4
16 16:56 NE 12 10.00 Fair CLR 93.9 68 43% 98 29.91 1010.4
16 15:56 N 9 10.00 Fair CLR 95 66.9 40% 99 29.92 1010.8
16 14:56 Vrbl 3 10.00 Fair CLR 93 66.9 42% 97 29.92 1010.9
16 13:56 Vrbl 6 10.00 Fair CLR 93 68 44% 97 29.92 1010.7
16 12:56 NW 7 10.00 Fair CLR 90 66.9 90 72 47% 93 29.93 1011.1
16 11:56 Vrbl 7 10.00 Fair CLR 87.1 68 53% 91 29.94 1011.5
16 10:56 Vrbl 3 10.00 Fair CLR 84 66 55% 86 29.94 1011.4
16 09:56 N 8 10.00 Fair CLR 82 69.1 65% 85 29.92 1011.1
16 08:56 NW 8 10.00 Fair CLR 78.1 66.9 69% 80 29.92 1010.9
16 07:56 W 8 10.00 Light Rain SCT060 SCT090 BKN100 73 66.9 81% 29.92 1010.8
16 06:56 SW 8 10.00 Fair CLR 75 64 84.9 75 69% 77 29.91 1010.5
16 05:56 NE 6 10.00 Fair CLR 78.1 61 56% 80 29.85 1008.2
16 04:56 N 20 10.00 Fair CLR 78.1 62.1 58% 80 29.8 1006.5
16 03:56 NW 24 G 32 10.00 Overcast and Breezy OVC024 77 68 74% 79 29.85 1008.1
16 02:56 N 12 10.00 Fair CLR 81 73.9 79% 86 29.81 1006.9
16 01:56 E 10 10.00 Fair CLR 82 73.9 77% 88 29.81 1006.6
16 00:56 NE 14 10.00 Fair CLR 84.9 73.9 102 82.9 70% 92 29.84 1007.7
15 23:56 N 14 10.00 Fair CLR 84.9 66 53% 87 29.82 1007.2
15 22:56 S 6 10.00 Fair CLR 84.9 70 61% 89 29.81 1007.1
15 21:56 S 8 10.00 Fair CLR 84.9 70 61% 89 29.8 1006.7
15 20:56 S 8 10.00 Fair CLR 91 66.9 45% 94 29.78 1006.0
15 19:56 S 7 10.00 Fair CLR 98.1 66.9 36% 103 29.77 1005.6
15 18:56 S 12 10.00 Fair CLR 102 64.9 104 99 30% 106 29.78 1006.1
15 17:56 S 12 10.00 Fair CLR 102 64.9 30% 106 29.8 1006.5
15 16:56 S 18 10.00 Fair CLR 100.9 69.1 36% 108 29.81 1006.9
15 15:56 S 13 10.00 Fair CLR 102.9 64.9 29% 107 29.82 1007.0
15 14:56 S 9 10.00 Fair CLR 102 66 31% 107 29.83 1007.6
15 13:56 SW 5 10.00 Fair CLR 100.9 64 30% 104 29.85 1008.2
15 12:56 S 8 10.00 Fair CLR 99 68 99 73 37% 105 29.86 1008.7
15 11:56 SW 12 10.00 Fair CLR 95 66 39% 98 29.88 1009.2
15 10:56 Vrbl 3 10.00 Fair CLR 91 66.9 45% 94 29.88 1009.4
15 09:56 SW 7 10.00 Fair CLR 87.1 64.9 48% 89 29.89 1009.8
15 08:56 SW 8 10.00 Fair CLR 82 64 55% 84 29.9 1010.2
15 07:56 SW 13 10.00 Fair CLR 78.1 64 62% 80 29.88 1009.6
15 06:56 S 10 10.00 Fair CLR 72 63 80.1 72 73% 29.86 1008.7
15 05:56 SW 7 10.00 Fair CLR 73 63 71% 29.87 1009.1
15 04:56 S 8 10.00 Fair CLR 73.9 63 69% 29.88 1009.4
15 03:56 S 12 10.00 Fair CLR 77 64 64% 79 29.87 1009.2
15 02:56 W 9 10.00 Fair CLR 77 64 64% 79 29.92 1010.7
15 01:56 S 10 10.00 Fair CLR 79 64 60% 81 29.91 1010.3
15 00:56 S 10 10.00 Fair CLR 80.1 64.9 100 78.1 60% 82 29.91 1010.5
14 23:56 S 6 10.00 Fair CLR 80.1 66 62% 82 29.93 1011.2
14 22:56 S 7 10.00 Fair CLR 81 66.9 62% 83 29.92 1011.1
14 21:56 S 8 10.00 Fair CLR 84 66.9 57% 87 29.9 1010.4
14 20:56 SE 9 10.00 Fair CLR 89.1 69.1 52% 94 29.89 1009.9
14 19:56 SE 8 10.00 Fair CLR 95 70 44% 101 29.9 1010.0
14 18:56 S 10 10.00 Fair CLR 100 66.9 102 91.9 34% 105 29.9 1010.2
14 17:56 SW 10 10.00 Fair CLR 100.9 66 32% 105 29.91 1010.5
Date Time (cdt) Wind (mph) Vis. (mi.) Weather Sky Cond. Air Dwpt Max. Min. Relative Humidity Wind Chill (°F) Heat Index (°F) altimeter (in) sea level (mb) 1 hr 3 hr 6 hr
6 hour
Temperature (ºF) Pressure Precipitation (in)